GW1603 Weather Reports


time (UTC)temp
C
wind
direction
speed
KPH
gust
KPH
rain 1hr
cm
rain 24hr
cm
rain mn
cm
humidity
%
barometer
mb
20260906140950 28 6 4.8 9.7 0.00 0.00 0.00 79 1015.6
20260906140445 28 331 3.2 9.7 0.00 0.00 0.00 80 1015.5
20260906135943 28 10 3.2 3.2 0.00 0.00 0.00 79 1015.6
20260906135442 28 13 3.2 4.8 0.00 0.00 0.00 80 1015.5
20260906134937 28 77 4.8 9.7 0.00 0.00 0.00 81 1015.7
20260906134432 27 45 1.6 4.8 0.00 0.00 0.00 81 1015.5
20260906133927 27 102 1.6 3.2 0.00 0.00 0.00 82 1015.5
20260906133423 27 29 4.8 9.7 0.00 0.00 0.00 83 1015.4
20260906132919 27 35 3.2 4.8 0.00 0.00 0.00 82 1015.5
20260906132414 27 14 3.2 3.2 0.00 0.00 0.00 82 1015.5
20260906131909 27 350 3.2 4.8 0.00 0.00 0.00 83 1015.7
20260906131405 27 50 1.6 8.0 0.00 0.00 0.00 83 1015.6
20260906130900 26 58 3.2 4.8 0.00 0.00 0.00 83 1015.5
20260906130359 26 14 4.8 4.8 0.00 0.00 0.00 84 1015.4
20260906125859 26 358 1.6 4.8 0.00 0.00 0.00 84 1015.5
20260906125356 26 350 1.6 3.2 0.00 0.00 0.00 83 1015.3
20260906124851 26 12 1.6 3.2 0.00 0.00 0.00 84 1015.2
20260906124347 25 357 1.6 3.2 0.00 0.00 0.00 85 1015.3
20260906123846 25 22 1.6 3.2 0.00 0.00 0.00 86 1015.5
20260906123341 25 0 1.6 1.6 0.00 0.00 0.00 86 1015.2
20260906122841 25 344 1.6 1.6 0.00 0.00 0.00 87 1015.1
20260906122336 25 323 0.0 1.6 0.00 0.00 0.00 86 1015.0
20260906121832 25 325 0.0 0.0 0.00 0.00 0.00 86 1015.1
20260906121328 25 320 0.0 0.0 0.00 0.00 0.00 86 1014.9
20260906120824 25 321 0.0 1.6 0.00 0.00 0.00 86 1014.8
20260906120320 25 316 0.0 1.6 0.00 0.00 0.00 86 1014.9
20260906115816 25 333 1.6 1.6 0.00 0.00 0.00 86 1014.7
20260906115311 24 323 1.6 1.6 0.00 0.00 0.00 87 1014.6
20260906114810 24 336 4.8 4.8 0.00 0.00 0.00 87 1014.6
20260906114305 24 350 1.6 3.2 0.00 0.00 0.00 87 1014.5
20260906113800 24 316 0.0 1.6 0.00 0.00 0.00 87 1014.4
20260906113300 24 311 0.0 1.6 0.00 0.00 0.00 87 1014.5
20260906112755 24 311 0.0 3.2 0.00 0.00 0.00 86 1014.2
20260906112251 24 322 1.6 1.6 0.00 0.00 0.00 86 1014.2
20260906111751 24 331 1.6 1.6 0.00 0.00 0.00 86 1013.9
20260906111250 24 313 0.0 1.6 0.00 0.00 0.00 86 1014.2
20260906110745 24 312 0.0 1.6 0.00 0.00 0.00 87 1014.3
20260906110241 23 331 1.6 1.6 0.00 0.00 0.00 87 1014.3
20260906105739 23 318 0.0 0.0 0.00 0.00 0.00 88 1014.2
20260906105230 23 318 0.0 0.0 0.00 0.00 0.00 87 1014.0
20260906104725 24 313 0.0 1.6 0.00 0.00 0.00 87 1014.1
20260906104224 24 321 1.6 1.6 0.00 0.00 0.00 87 1014.1
20260906103722 24 324 0.0 1.6 0.00 0.00 0.00 87 1014.2
20260906103217 24 323 0.0 0.0 0.00 0.00 0.00 87 1014.1
20260906102712 23 323 0.0 0.0 0.00 0.00 0.00 88 1014.1
20260906102211 24 323 0.0 0.0 0.00 0.00 0.00 87 1013.9
20260906101706 24 324 0.0 0.0 0.00 0.00 0.00 87 1013.7
20260906101201 24 335 0.0 1.6 0.00 0.00 0.00 86 1013.8
20260906100656 25 334 1.6 1.6 0.00 0.00 0.00 85 1013.9
20260906100151 25 330 1.6 1.6 0.00 0.00 0.00 83 1013.9
20260906095646 25 319 0.0 1.6 0.00 0.00 0.00 82 1013.7
20260906095141 25 319 0.0 0.0 0.00 0.00 0.00 83 1013.8
20260906094640 25 320 0.0 0.0 0.00 0.00 0.00 83 1013.8
20260906094135 24 320 0.0 0.0 0.00 0.00 0.00 85 1013.7
20260906093632 25 320 0.0 0.0 0.00 0.00 0.00 86 1013.8
20260906093126 25 320 0.0 1.6 0.00 0.00 0.00 84 1013.8
20260906092621 25 314 0.0 0.0 0.00 0.00 0.00 82 1013.7
20260906092116 25 313 0.0 0.0 0.00 0.00 0.00 83 1013.7
20260906091612 25 313 0.0 0.0 0.00 0.00 0.00 85 1013.7
20260906091109 25 314 0.0 0.0 0.00 0.00 0.00 84 1013.5
20260906090608 25 314 0.0 0.0 0.00 0.00 0.00 85 1013.6
20260906090103 25 313 0.0 0.0 0.00 0.00 0.00 85 1013.7
20260906085602 25 312 0.0 0.0 0.00 0.00 0.00 85 1013.6
20260906085056 25 312 0.0 0.0 0.00 0.00 0.00 84 1013.6
20260906084551 25 312 0.0 0.0 0.00 0.00 0.00 85 1013.6
20260906084050 25 312 0.0 0.0 0.00 0.00 0.00 86 1013.7
20260906083546 25 312 0.0 0.0 0.00 0.00 0.00 86 1013.7
20260906083045 25 311 0.0 0.0 0.00 0.00 0.00 85 1013.8
20260906082541 25 312 0.0 0.0 0.00 0.00 0.00 85 1013.7
20260906082036 25 306 0.0 0.0 0.00 0.00 0.00 85 1013.8
20260906081532 25 306 0.0 0.0 0.00 0.00 0.00 84 1013.7
20260906081027 25 286 0.0 1.6 0.00 0.00 0.00 84 1013.7
20260906080523 25 298 0.0 0.0 0.00 0.00 0.00 84 1013.8
20260906080019 25 281 0.0 1.6 0.00 0.00 0.00 84 1013.8
20260906075514 26 294 0.0 1.6 0.00 0.00 0.00 83 1013.9
20260906075009 25 298 0.0 0.0 0.00 0.00 0.00 83 1013.7
20260906074503 25 292 0.0 0.0 0.00 0.00 0.00 83 1013.6
20260906074002 25 302 0.0 0.0 0.00 0.00 0.00 84 1013.7
20260906073456 25 344 1.6 3.2 0.00 0.00 0.00 83 1013.6
20260906072953 25 327 0.0 1.6 0.00 0.00 0.00 83 1013.5
20260906072448 26 316 0.0 1.6 0.00 0.00 0.00 83 1013.6
20260906071944 26 281 1.6 1.6 0.00 0.00 0.00 83 1013.7
20260906071440 26 320 1.6 3.2 0.00 0.00 0.00 83 1013.7
20260906070935 26 324 0.0 0.0 0.00 0.00 0.00 81 1013.7
20260906070431 25 324 0.0 0.0 0.00 0.00 0.00 83 1013.7
20260906065927 26 325 1.6 1.6 0.00 0.00 0.00 83 1013.7
20260906065421 26 318 0.0 1.6 0.00 0.00 0.00 82 1013.8
20260906064916 26 305 0.0 0.0 0.00 0.00 0.00 81 1013.9
20260906064413 26 304 0.0 0.0 0.00 0.00 0.00 81 1013.9
20260906063913 26 296 0.0 0.0 0.00 0.00 0.00 82 1013.8
20260906063408 26 296 0.0 0.0 0.00 0.00 0.00 81 1013.9
20260906062903 26 345 3.2 3.2 0.00 0.00 0.00 80 1013.7
20260906062402 26 317 1.6 1.6 0.00 0.00 0.00 80 1013.8
20260906061857 26 288 0.0 0.0 0.00 0.00 0.00 81 1013.7
20260906061348 26 302 0.0 0.0 0.00 0.00 0.00 82 1013.9
20260906060843 26 318 0.0 0.0 0.00 0.00 0.00 81 1014.0
20260906060340 25 318 0.0 0.0 0.00 0.00 0.00 82 1014.1
20260906055836 26 321 0.0 0.0 0.00 0.00 0.00 82 1013.9
20260906055332 26 259 0.0 0.0 0.00 0.00 0.00 82 1013.9
20260906054826 26 259 0.0 0.0 0.00 0.00 0.00 82 1014.0
20260906054321 26 259 0.0 0.0 0.00 0.00 0.00 82 1014.1
20260906053818 26 259 0.0 0.0 0.00 0.00 0.00 82 1014.1
20260906053314 26 260 0.0 0.0 0.00 0.00 0.00 82 1014.0
20260906052808 26 259 0.0 0.0 0.00 0.00 0.00 82 1014.0
20260906052306 26 292 0.0 0.0 0.00 0.00 0.00 82 1013.9
20260906051802 26 267 0.0 0.0 0.00 0.00 0.00 82 1014.0
20260906051301 26 199 3.2 3.2 0.00 0.00 0.00 81 1014.0
20260906050756 26 293 0.0 0.0 0.00 0.00 0.00 81 1014.0
20260906050252 26 293 0.0 0.0 0.00 0.00 0.00 79 1013.8
20260906045750 26 293 0.0 0.0 0.00 0.00 0.00 80 1013.8
20260906045245 26 293 0.0 0.0 0.00 0.00 0.00 80 1013.7
20260906044741 26 293 0.0 0.0 0.00 0.00 0.00 79 1013.7
20260906044236 26 293 0.0 0.0 0.00 0.00 0.00 78 1013.6
20260906043732 26 293 0.0 0.0 0.00 0.00 0.00 77 1013.6
20260906043227 27 293 0.0 0.0 0.00 0.00 0.00 77 1013.6
20260906042727 27 293 0.0 0.0 0.00 0.00 0.00 77 1013.5
20260906042226 27 293 0.0 0.0 0.00 0.00 0.00 77 1013.7
20260906041721 27 292 0.0 0.0 0.00 0.00 0.00 76 1013.7
20260906041216 27 293 0.0 0.0 0.00 0.00 0.00 76 1013.7
20260906040712 27 293 0.0 0.0 0.00 0.00 0.00 76 1013.6
20260906040207 27 293 0.0 0.0 0.00 0.00 0.00 76 1013.6
20260906035703 27 293 0.0 0.0 0.00 0.00 0.00 76 1013.5
20260906035158 27 293 0.0 0.0 0.00 0.00 0.00 75 1013.6
20260906034653 27 293 0.0 0.0 0.00 0.00 0.00 75 1013.6
20260906034148 27 293 0.0 0.0 0.00 0.00 0.00 76 1013.7
20260906033644 27 293 0.0 0.0 0.00 0.00 0.00 75 1013.8
20260906033138 27 293 0.0 0.0 0.00 0.00 0.00 74 1013.8
20260906032635 27 292 0.0 0.0 0.00 0.00 0.00 74 1013.8
20260906032134 27 292 0.0 0.0 0.00 0.00 0.00 73 1013.8
20260906031630 27 293 0.0 0.0 0.00 0.00 0.00 73 1013.7
20260906031125 27 293 0.0 0.0 0.00 0.00 0.00 73 1013.6
20260906030624 27 293 0.0 0.0 0.00 0.00 0.00 73 1013.6
20260906030120 27 293 0.0 0.0 0.00 0.00 0.00 73 1013.6
20260906025619 27 293 0.0 0.0 0.00 0.00 0.00 73 1013.4
20260906025118 27 293 0.0 0.0 0.00 0.00 0.00 73 1013.4
20260906024613 27 293 0.0 0.0 0.00 0.00 0.00 72 1013.5
20260906024107 27 293 0.0 0.0 0.00 0.00 0.00 72 1013.5
20260906023603 27 292 0.0 0.0 0.00 0.00 0.00 72 1013.7
20260906023058 27 294 0.0 1.6 0.00 0.00 0.00 73 1013.5
20260906022553 28 251 0.0 0.0 0.00 0.00 0.00 70 1013.5
20260906022049 28 251 0.0 0.0 0.00 0.00 0.00 69 1013.3
20260906021544 28 251 0.0 0.0 0.00 0.00 0.00 69 1013.4
20260906021043 28 251 0.0 0.0 0.00 0.00 0.00 69 1013.2
20260906020542 28 251 0.0 0.0 0.00 0.00 0.00 70 1013.1
20260906020036 28 251 0.0 0.0 0.00 0.00 0.00 69 1013.2
20260906015535 28 250 0.0 0.0 0.00 0.00 0.00 69 1013.0
20260906015030 29 250 0.0 0.0 0.00 0.00 0.00 68 1012.7
20260906014525 28 252 0.0 0.0 0.00 0.00 0.00 68 1012.9
20260906014021 29 252 0.0 0.0 0.00 0.00 0.00 68 1012.9
20260906013516 29 252 0.0 0.0 0.00 0.00 0.00 67 1012.9
20260906013011 30 252 0.0 0.0 0.00 0.00 0.00 66 1012.9
20260906012506 30 251 0.0 0.0 0.00 0.00 0.00 65 1012.8
20260906012006 30 251 0.0 0.0 0.00 0.00 0.00 65 1012.7
20260906011502 30 248 0.0 0.0 0.00 0.00 0.00 65 1012.5
20260906010956 30 289 0.0 0.0 0.00 0.00 0.00 64 1012.4
20260906010452 30 289 0.0 0.0 0.00 0.00 0.00 64 1012.3
20260906005948 30 290 0.0 0.0 0.00 0.00 0.00 63 1012.3
20260906005447 31 289 0.0 0.0 0.00 0.00 0.00 62 1012.3
20260906004946 31 289 0.0 0.0 0.00 0.00 0.00 61 1012.3
20260906004445 31 289 0.0 0.0 0.00 0.00 0.00 60 1012.4
20260906003941 31 289 0.0 0.0 0.00 0.00 0.00 59 1012.4
20260906003442 32 289 0.0 0.0 0.00 0.00 0.00 57 1012.4
20260906002937 32 116 0.0 0.0 0.00 0.00 0.00 56 1012.6
20260906002437 32 87 0.0 4.8 0.00 0.00 0.00 55 1012.4
20260906001932 32 130 1.6 1.6 0.00 0.00 0.00 55 1012.4
20260906001428 32 77 1.6 1.6 0.00 0.00 0.00 55 1012.5
20260906000923 33 309 0.0 0.0 0.00 0.00 0.00 54 1012.3
20260906000418 33 315 0.0 0.0 0.00 0.00 0.00 53 1012.4
20260905235912 33 306 0.0 0.0 0.00 0.00 0.00 53 1012.5
20260905235407 33 306 0.0 0.0 0.00 0.00 0.00 51 1012.5
20260905234902 34 309 0.0 0.0 0.00 0.00 0.00 50 1012.6
20260905234357 34 299 0.0 1.6 0.00 0.00 0.00 50 1012.5
20260905233852 35 355 1.6 3.2 0.00 0.00 0.00 49 1012.5
20260905233347 35 322 0.0 3.2 0.00 0.00 0.00 48 1012.6
20260905232847 35 55 3.2 4.8 0.00 0.00 0.00 47 1012.5
20260905232343 35 97 3.2 4.8 0.00 0.00 0.00 46 1012.5
20260905231838 35 70 1.6 1.6 0.00 0.00 0.00 46 1012.6
20260905231333 35 308 0.0 3.2 0.00 0.00 0.00 44 1012.5
20260905230830 36 107 3.2 3.2 0.00 0.00 0.00 44 1012.5
20260905230327 36 148 3.2 3.2 0.00 0.00 0.00 44 1012.6
20260905225826 36 122 3.2 3.2 0.00 0.00 0.00 44 1012.5
20260905225321 36 134 4.8 4.8 0.00 0.00 0.00 44 1012.5
20260905224816 36 47 1.6 3.2 0.00 0.00 0.00 44 1012.5
20260905224312 36 351 3.2 4.8 0.00 0.00 0.00 43 1012.5
20260905223807 36 0 1.6 3.2 0.00 0.00 0.00 43 1012.4
20260905223304 36 127 4.8 8.0 0.00 0.00 0.00 43 1012.6
20260905222759 36 351 3.2 4.8 0.00 0.00 0.00 44 1012.6
20260905222258 36 312 0.0 1.6 0.00 0.00 0.00 44 1012.4
20260905221754 36 339 0.0 1.6 0.00 0.00 0.00 43 1012.4
20260905221251 36 278 0.0 1.6 0.00 0.00 0.00 43 1012.5
20260905220746 36 5 1.6 11.3 0.00 0.00 0.00 44 1012.5
20260905220242 36 47 3.2 3.2 0.00 0.00 0.00 44 1012.4
20260905215741 37 339 4.8 9.7 0.00 0.00 0.00 42 1012.5
20260905215237 37 287 1.6 4.8 0.00 0.00 0.00 41 1012.7
20260905214733 37 79 3.2 4.8 0.00 0.00 0.00 41 1012.7
20260905214229 37 323 1.6 4.8 0.00 0.00 0.00 42 1012.8
20260905213723 37 317 1.6 4.8 0.00 0.00 0.00 41 1012.9
20260905213220 37 229 1.6 3.2 0.00 0.00 0.00 41 1012.6
20260905212714 38 13 8.0 12.9 0.00 0.00 0.00 41 1012.7
20260905212213 37 9 4.8 4.8 0.00 0.00 0.00 41 1012.7
20260905211708 38 304 0.0 9.7 0.00 0.00 0.00 41 1012.9
20260905211158 37 265 1.6 4.8 0.00 0.00 0.00 41 1012.8
20260905210655 37 71 1.6 3.2 0.00 0.00 0.00 43 1013.1
20260905210155 37 69 3.2 8.0 0.00 0.00 0.00 43 1012.9
20260905205654 36 18 1.6 4.8 0.00 0.00 0.00 46 1012.8
20260905205153 36 52 3.2 4.8 0.00 0.00 0.00 46 1012.8
20260905204653 36 61 1.6 4.8 0.00 0.00 0.00 46 1013.0
20260905204148 36 308 4.8 8.0 0.00 0.00 0.00 45 1013.2
20260905203643 36 32 1.6 4.8 0.00 0.00 0.00 45 1013.1
20260905203138 36 11 1.6 3.2 0.00 0.00 0.00 43 1013.0
20260905202634 37 109 1.6 4.8 0.00 0.00 0.00 41 1013.1
20260905202129 37 0 1.6 3.2 0.00 0.00 0.00 41 1013.1
20260905201624 37 339 1.6 1.6 0.00 0.00 0.00 40 1013.4
20260905201124 37 309 0.0 1.6 0.00 0.00 0.00 40 1013.4
20260905200620 38 101 3.2 3.2 0.00 0.00 0.00 38 1013.5
20260905200114 37 302 0.0 8.0 0.00 0.00 0.00 41 1013.6
20260905195608 37 94 9.7 11.3 0.00 0.00 0.00 40 1013.5
20260905195103 38 104 4.8 8.0 0.00 0.00 0.00 39 1013.7
20260905194603 38 75 4.8 8.0 0.00 0.00 0.00 39 1013.7
20260905194102 39 85 3.2 11.3 0.00 0.00 0.00 37 1013.7
20260905193557 38 356 3.2 9.7 0.00 0.00 0.00 37 1013.7
20260905193052 37 339 3.2 9.7 0.00 0.00 0.00 38 1013.7
20260905192548 37 309 0.0 8.0 0.00 0.00 0.00 39 1013.8
20260905192044 36 256 0.0 1.6 0.00 0.00 0.00 41 1013.8
20260905191542 36 98 3.2 4.8 0.00 0.00 0.00 41 1014.0
20260905191041 36 22 0.0 4.8 0.00 0.00 0.00 42 1014.2
20260905190539 37 57 3.2 4.8 0.00 0.00 0.00 40 1014.2
20260905190034 37 3 0.0 1.6 0.00 0.00 0.00 40 1014.1
20260905185533 38 281 0.0 3.2 0.00 0.00 0.00 38 1014.2
20260905185033 38 3 4.8 9.7 0.00 0.00 0.00 39 1014.4
20260905184527 37 38 1.6 9.7 0.00 0.00 0.00 38 1014.4
20260905184026 38 86 3.2 8.0 0.00 0.00 0.00 38 1014.4
20260905183525 37 333 3.2 9.7 0.00 0.00 0.00 38 1014.5
20260905183021 37 58 1.6 3.2 0.00 0.00 0.00 38 1014.5
20260905182515 38 88 1.6 8.0 0.00 0.00 0.00 38 1014.6
20260905182009 37 12 1.6 3.2 0.00 0.00 0.00 39 1014.8
20260905181504 36 304 0.0 1.6 0.00 0.00 0.00 42 1014.6
20260905181003 36 288 0.0 0.0 0.00 0.00 0.00 42 1014.7
20260905180458 36 289 0.0 1.6 0.00 0.00 0.00 42 1014.7
20260905175953 36 309 1.6 3.2 0.00 0.00 0.00 41 1014.8
20260905175453 37 301 3.2 8.0 0.00 0.00 0.00 40 1014.8
20260905174949 37 325 0.0 1.6 0.00 0.00 0.00 40 1014.9
20260905174443 37 350 4.8 4.8 0.00 0.00 0.00 39 1014.8
20260905173939 38 287 0.0 11.3 0.00 0.00 0.00 38 1014.8
20260905173436 37 357 3.2 9.7 0.00 0.00 0.00 39 1014.7
20260905172931 37 304 1.6 8.0 0.00 0.00 0.00 39 1014.8
20260905172429 38 293 1.6 4.8 0.00 0.00 0.00 39 1014.9
20260905171925 38 292 0.0 8.0 0.00 0.00 0.00 37 1014.6
20260905171421 38 325 1.6 3.2 0.00 0.00 0.00 39 1014.9
20260905170917 38 278 1.6 4.8 0.00 0.00 0.00 39 1015.2
20260905170413 37 273 1.6 4.8 0.00 0.00 0.00 39 1015.1
20260905165912 37 345 4.8 8.0 0.00 0.00 0.00 40 1015.3
20260905165408 37 285 3.2 11.3 0.00 0.00 0.00 40 1015.2
20260905164903 37 36 3.2 4.8 0.00 0.00 0.00 38 1015.2
20260905164357 37 348 4.8 8.0 0.00 0.00 0.00 39 1015.3
20260905163852 37 223 3.2 8.0 0.00 0.00 0.00 39 1015.3
20260905163349 37 287 4.8 4.8 0.00 0.00 0.00 40 1015.3
20260905162845 38 294 1.6 4.8 0.00 0.00 0.00 40 1015.4
20260905162344 37 284 1.6 3.2 0.00 0.00 0.00 41 1015.5
20260905161839 37 252 0.0 3.2 0.00 0.00 0.00 43 1015.3
20260905161338 36 217 3.2 9.7 0.00 0.00 0.00 43 1015.3
20260905160836 37 261 1.6 3.2 0.00 0.00 0.00 42 1015.4
20260905160331 37 304 0.0 3.2 0.00 0.00 0.00 42 1015.4
20260905155825 36 306 3.2 4.8 0.00 0.00 0.00 42 1015.5
20260905155325 36 338 1.6 4.8 0.00 0.00 0.00 44 1015.5
20260905154819 36 252 1.6 4.8 0.00 0.00 0.00 45 1015.8
20260905154314 36 313 1.6 8.0 0.00 0.00 0.00 44 1015.8
20260905153810 36 333 4.8 8.0 0.00 0.00 0.00 45 1015.7
20260905153307 36 321 1.6 4.8 0.00 0.00 0.00 45 1015.7
20260905152806 36 315 4.8 4.8 0.00 0.00 0.00 43 1015.6
20260905152306 36 256 4.8 4.8 0.00 0.00 0.00 45 1015.6
20260905151800 36 255 3.2 3.2 0.00 0.00 0.00 47 1015.7
20260905151256 35 304 1.6 4.8 0.00 0.00 0.00 47 1015.7
20260905150750 35 269 0.0 3.2 0.00 0.00 0.00 47 1015.7
20260905150249 35 331 0.0 4.8 0.00 0.00 0.00 48 1015.8
20260905145747 35 298 3.2 4.8 0.00 0.00 0.00 48 1015.7
20260905145242 35 279 1.6 4.8 0.00 0.00 0.00 49 1015.5
20260905144741 35 359 4.8 8.0 0.00 0.00 0.00 48 1015.5
20260905144237 35 276 0.0 3.2 0.00 0.00 0.00 49 1015.7
20260905143735 34 297 1.6 4.8 0.00 0.00 0.00 51 1015.7
20260905143235 34 286 1.6 3.2 0.00 0.00 0.00 52 1015.5
20260905142733 35 306 1.6 1.6 0.00 0.00 0.00 51 1015.8
20260905142228 34 302 1.6 1.6 0.00 0.00 0.00 53 1015.7
20260905141724 34 236 3.2 3.2 0.00 0.00 0.00 54 1015.7
20260905141220 33 280 0.0 1.6 0.00 0.00 0.00 55 1015.7